User: anonymous   Login
Location: Asheville, NC
(35.6000°N, 82.5500°W)
Time: 15:49:04
(UTC-05:00)
Language:

UWE-3 - Orbit

View from above orbital plane
View from above orbital plane
View from above satellite
View from above satellite

Ground track
Ground track

The orbit data is extracted from the following two-line orbital elements,

1 39446U 13066AG  18015.85480180 +.00000212 +00000-0 +35103-4 0  9992
2 39446 097.6067 045.9303 0069186 313.3095 046.2360 14.78130536222028
Epoch (UTC): 15 January 2018 20:30:54
Eccentricity: 0.0069186
inclination: 97.6067°
perigee height: 587 km
apogee height: 684 km
right ascension of ascending node: 45.9303°
argument of perigee: 313.3095°
revolutions per day: 14.78130536
mean anomaly at epoch: 46.2360°
orbit number at epoch: 22202

The dashed part of the orbit path shows where the satellite is in the earth's shadow,  

DLR